Orbital Elements at Epoch 2459200.5 (2020-Dec-17.0) TDB
Reference: JPL 18 (heliocentric ecliptic J2000)
Element | Value | Uncertainty (1-sigma) | Units |
e | .1442907182814097 | 6.6488e-08 | |
a | 2.579938993246509 | 1.6027e-08 | au |
q | 2.207677742788753 | 1.6426e-07 | au |
i | 5.427363320897086 | 4.8321e-06 | deg |
node | 49.00457841329126 | 5.4428e-05 | deg |
peri | 288.630323471692 | 5.8291e-05 | deg |
M | 157.315372377329 | 2.7756e-05 | deg |
tp | 2458539.074029114362 (2019-Feb-24.57402911) | 0.00011248 | TDB |
period | 1513.605097330873 4.14 | 1.4104e-05 3.861e-08 | d yr |
n | .2378427508171269 | 2.2162e-09 | deg/d |
Q | 2.952200243704265 | 1.8339e-08 | au |
|
| | Orbit Determination Parameters
Additional Information
|